Location: Unspecified
(0.0000°N, 0.0000°E)
Time: 19:26:40
(UTC+02:00)

Centaur D-1AR AC-41 - Visible Passes

Search period start: 16 August 2017 00:00
Search period end: 26 August 2017 00:00
Orbit: 581 x 36259 km, 21.2° (Epoch: 15 August)

Date Brightness Start Highest point End Pass type
(mag) Time Alt. Az. Time Alt. Az. Time Alt. Az.
16 Aug 7.5 20:21:28 10° W 23:27:54 65° NNW 06:33:45 10° SE visible
17 Aug 8.0 17:46:44 10° W 03:03:24 81° NE 04:00:46 10° ESE visible
18 Aug 6.1 15:15:52 10° SW 23:45:57 43° ENE 01:18:23 10° E visible
20 Aug 10.3 00:50:13 10° WNW 02:10:59 20° WNW 04:37:22 10° WNW visible
20 Aug 6.9 21:41:04 10° WNW 23:45:21 54° NW 07:46:36 10° SE visible
21 Aug 7.8 19:01:31 10° W 19:33:41 63° N 05:15:41 10° ESE visible
22 Aug 7.1 16:28:47 10° WSW 01:13:20 67° ENE 02:40:08 10° ESE visible
23 Aug 9.2 19:09:10 10° ENE 22:24:30 27° ENE 23:46:21 10° E visible
24 Aug 6.7 23:08:08 10° WNW 00:55:40 35° WNW 05:37:23 10° WNW visible
